Time,TemperatureF,DewpointF,PressureIn,WindDirection,WindDirectionDegrees,WindSpeedMPH,WindSpeedGustMPH,Humidity,HourlyPrecipIn,Conditions,Clouds,dailyrainin,SoftwareType,DateUTC
2013-04-17 00:00:00,51.0,47.3,29.96,WSW,241,7.0,7.0,87,0.00,,,0.00,vanprod-2.5,2013-04-17 04:00:00,
2013-04-17 00:05:00,51.3,47.6,29.96,WSW,240,6.0,10.0,87,0.00,,,0.00,vanprod-2.5,2013-04-17 04:05:00,
2013-04-17 00:10:00,51.6,47.9,29.96,WSW,250,6.0,9.0,87,0.00,,,0.00,vanprod-2.5,2013-04-17 04:10:00,
2013-04-17 00:15:00,51.8,47.8,29.96,SW,227,3.0,5.0,86,0.00,,,0.00,vanprod-2.5,2013-04-17 04:15:00,
2013-04-17 00:20:00,51.8,48.1,29.97,West,270,3.0,3.0,87,0.00,,,0.00,vanprod-2.5,2013-04-17 04:20:00,
2013-04-17 00:25:00,51.8,48.1,29.97,West,269,4.0,6.0,87,0.00,,,0.00,vanprod-2.5,2013-04-17 04:25:00,
2013-04-17 00:30:00,52.0,48.3,29.97,SW,227,4.0,4.0,87,0.00,,,0.00,vanprod-2.5,2013-04-17 04:30:00,
2013-04-17 00:35:00,52.4,48.7,29.97,WSW,254,5.0,8.0,87,0.00,,,0.00,vanprod-2.5,2013-04-17 04:35:00,
2013-04-17 00:40:00,52.5,48.4,29.97,WSW,252,5.0,12.0,86,0.00,,,0.00,vanprod-2.5,2013-04-17 04:40:00,
2013-04-17 00:45:00,52.5,48.4,29.97,WSW,244,4.0,8.0,86,0.00,,,0.00,vanprod-2.5,2013-04-17 04:45:00,
2013-04-17 00:50:00,52.6,48.5,29.97,WSW,252,5.0,10.0,86,0.00,,,0.00,vanprod-2.5,2013-04-17 04:50:00,
2013-04-17 00:55:00,52.8,49.0,29.97,WSW,242,6.0,6.0,87,0.00,,,0.00,vanprod-2.5,2013-04-17 04:55:00,
2013-04-17 01:00:00,53.2,49.4,29.98,West,263,7.0,9.0,87,0.00,,,0.00,vanprod-2.5,2013-04-17 05:00:00,
2013-04-17 01:05:00,53.5,49.4,29.97,West,260,8.0,11.0,86,0.00,,,0.00,vanprod-2.5,2013-04-17 05:05:00,
2013-04-17 01:10:00,53.7,49.6,29.97,WSW,257,6.0,10.0,86,0.00,,,0.00,vanprod-2.5,2013-04-17 05:10:00,
2013-04-17 01:15:00,53.8,49.7,29.97,WSW,250,5.0,10.0,86,0.00,,,0.00,vanprod-2.5,2013-04-17 05:15:00,
2013-04-17 01:20:00,54.0,49.9,29.98,WNW,287,5.0,6.0,86,0.00,,,0.00,vanprod-2.5,2013-04-17 05:20:00,
2013-04-17 01:25:00,54.1,50.0,29.98,West,267,3.0,4.0,86,0.00,,,0.00,vanprod-2.5,2013-04-17 05:25:00,
2013-04-17 01:30:00,54.2,50.1,29.98,WSW,248,4.0,6.0,86,0.00,,,0.00,vanprod-2.5,2013-04-17 05:30:00,
2013-04-17 01:35:00,54.2,50.1,29.99,West,274,4.0,6.0,86,0.00,,,0.00,vanprod-2.5,2013-04-17 05:35:00,
2013-04-17 01:40:00,54.2,50.1,29.99,West,272,3.0,4.0,86,0.00,,,0.00,vanprod-2.5,2013-04-17 05:40:00,
2013-04-17 01:45:00,54.2,50.1,29.99,West,261,4.0,4.0,86,0.00,,,0.00,vanprod-2.5,2013-04-17 05:45:00,
2013-04-17 01:50:00,54.0,49.9,29.99,WSW,249,4.0,4.0,86,0.00,,,0.00,vanprod-2.5,2013-04-17 05:50:00,
2013-04-17 01:55:00,53.9,49.8,29.99,WSW,252,4.0,4.0,86,0.00,,,0.00,vanprod-2.5,2013-04-17 05:55:00,
2013-04-17 02:00:00,53.9,49.8,29.99,SW,220,2.0,4.0,86,0.00,,,0.00,vanprod-2.5,2013-04-17 06:00:00,
2013-04-17 02:05:00,53.9,49.8,29.99,WSW,252,1.0,2.0,86,0.00,,,0.00,vanprod-2.5,2013-04-17 06:05:00,
2013-04-17 02:10:00,53.9,50.1,30.00,WNW,296,0.0,1.0,87,0.00,,,0.00,vanprod-2.5,2013-04-17 06:10:00,
2013-04-17 02:15:00,54.1,50.3,30.00,WNW,286,2.0,3.0,87,0.00,,,0.00,vanprod-2.5,2013-04-17 06:15:00,
2013-04-17 02:20:00,54.2,50.4,30.00,WNW,284,2.0,2.0,87,0.00,,,0.00,vanprod-2.5,2013-04-17 06:20:00,
2013-04-17 02:25:00,54.4,50.9,30.00,NW,304,2.0,3.0,88,0.00,,,0.00,vanprod-2.5,2013-04-17 06:25:00,
2013-04-17 02:30:00,54.8,51.0,30.00,WNW,287,3.0,4.0,87,0.00,,,0.00,vanprod-2.5,2013-04-17 06:30:00,
2013-04-17 02:35:00,54.8,51.0,30.00,West,280,2.0,4.0,87,0.00,,,0.00,vanprod-2.5,2013-04-17 06:35:00,
2013-04-17 02:40:00,54.9,51.1,30.01,NW,320,3.0,6.0,87,0.00,,,0.00,vanprod-2.5,2013-04-17 06:40:00,
2013-04-17 02:45:00,55.2,51.4,30.01,WNW,284,4.0,6.0,87,0.00,,,0.00,vanprod-2.5,2013-04-17 06:45:00,
2013-04-17 02:50:00,55.4,51.3,30.02,NNW,337,5.0,9.0,86,0.00,,,0.00,vanprod-2.5,2013-04-17 06:50:00,
2013-04-17 02:55:00,55.5,48.1,30.01,NW,315,6.0,6.0,76,0.00,,,0.00,vanprod-2.5,2013-04-17 06:55:00,
2013-04-17 03:00:00,55.4,47.6,30.02,NW,321,3.0,4.0,75,0.00,,,0.00,vanprod-2.5,2013-04-17 07:00:00,
2013-04-17 03:05:00,55.2,46.0,30.02,WNW,291,4.0,9.0,71,0.00,,,0.00,vanprod-2.5,2013-04-17 07:05:00,
2013-04-17 03:10:00,55.1,45.1,30.02,NW,307,5.0,11.0,69,0.00,,,0.00,vanprod-2.5,2013-04-17 07:10:00,
2013-04-17 03:15:00,54.9,44.2,30.03,NW,326,4.0,8.0,67,0.00,,,0.00,vanprod-2.5,2013-04-17 07:15:00,
2013-04-17 03:20:00,54.7,44.0,30.03,WNW,284,3.0,3.0,67,0.00,,,0.00,vanprod-2.5,2013-04-17 07:20:00,
2013-04-17 03:25:00,54.3,43.6,30.03,NW,316,2.0,2.0,67,0.00,,,0.00,vanprod-2.5,2013-04-17 07:25:00,
2013-04-17 03:30:00,54.0,43.7,30.04,NNW,335,2.0,2.0,68,0.00,,,0.00,vanprod-2.5,2013-04-17 07:30:00,
2013-04-17 03:35:00,53.6,43.3,30.04,NW,322,2.0,3.0,68,0.00,,,0.00,vanprod-2.5,2013-04-17 07:35:00,
2013-04-17 03:40:00,53.3,43.4,30.04,NW,307,1.0,2.0,69,0.00,,,0.00,vanprod-2.5,2013-04-17 07:40:00,
2013-04-17 03:45:00,53.0,43.5,30.04,WNW,297,1.0,2.0,70,0.00,,,0.00,vanprod-2.5,2013-04-17 07:45:00,
2013-04-17 03:50:00,52.8,42.9,30.04,NW,322,2.0,2.0,69,0.00,,,0.00,vanprod-2.5,2013-04-17 07:50:00,
2013-04-17 03:55:00,52.5,43.0,30.04,NNW,344,1.0,6.0,70,0.00,,,0.00,vanprod-2.5,2013-04-17 07:55:00,
2013-04-17 04:00:00,52.2,42.4,30.05,NE,35,1.0,2.0,69,0.00,,,0.00,vanprod-2.5,2013-04-17 08:00:00,
2013-04-17 04:05:00,51.8,42.3,30.05,NNW,327,2.0,5.0,70,0.00,,,0.00,vanprod-2.5,2013-04-17 08:05:00,
2013-04-17 04:10:00,52.0,42.5,30.05,NNW,328,2.0,2.0,70,0.00,,,0.00,vanprod-2.5,2013-04-17 08:10:00,
2013-04-17 04:15:00,51.8,42.3,30.05,NW,314,3.0,6.0,70,0.00,,,0.00,vanprod-2.5,2013-04-17 08:15:00,
2013-04-17 04:20:00,51.8,42.3,30.05,NW,314,2.0,2.0,70,0.00,,,0.00,vanprod-2.5,2013-04-17 08:20:00,
2013-04-17 04:25:00,51.7,42.6,30.05,North,5,4.0,7.0,71,0.00,,,0.00,vanprod-2.5,2013-04-17 08:25:00,
2013-04-17 04:30:00,50.7,42.0,30.05,North,10,3.0,6.0,72,0.00,,,0.00,vanprod-2.5,2013-04-17 08:30:00,
2013-04-17 04:35:00,50.0,41.7,30.06,North,351,4.0,10.0,73,0.00,,,0.00,vanprod-2.5,2013-04-17 08:35:00,
2013-04-17 04:40:00,49.4,40.8,30.06,North,7,4.0,4.0,72,0.00,,,0.00,vanprod-2.5,2013-04-17 08:40:00,
2013-04-17 04:45:00,49.1,40.5,30.07,NNE,19,4.0,7.0,72,0.00,,,0.00,vanprod-2.5,2013-04-17 08:45:00,
2013-04-17 04:50:00,48.6,40.0,30.06,NNE,25,2.0,3.0,72,0.00,,,0.00,vanprod-2.5,2013-04-17 08:50:00,
2013-04-17 04:55:00,48.3,39.7,30.07,North,8,4.0,9.0,72,0.00,,,0.00,vanprod-2.5,2013-04-17 08:55:00,
2013-04-17 05:00:00,48.2,39.3,30.07,North,359,2.0,3.0,71,0.00,,,0.00,vanprod-2.5,2013-04-17 09:00:00,
2013-04-17 05:05:00,48.1,39.2,30.07,North,353,3.0,7.0,71,0.00,,,0.00,vanprod-2.5,2013-04-17 09:05:00,
2013-04-17 05:10:00,48.0,38.7,30.07,North,352,3.0,6.0,70,0.00,,,0.00,vanprod-2.5,2013-04-17 09:10:00,
2013-04-17 05:15:00,48.0,38.3,30.07,NNE,17,3.0,6.0,69,0.00,,,0.00,vanprod-2.5,2013-04-17 09:15:00,
2013-04-17 05:20:00,47.8,38.1,30.08,North,353,3.0,6.0,69,0.00,,,0.00,vanprod-2.5,2013-04-17 09:20:00,
2013-04-17 05:25:00,47.6,37.9,30.08,NNE,21,2.0,3.0,69,0.00,,,0.00,vanprod-2.5,2013-04-17 09:25:00,
2013-04-17 05:30:00,47.3,38.0,30.08,NNW,335,2.0,3.0,70,0.00,,,0.00,vanprod-2.5,2013-04-17 09:30:00,
2013-04-17 05:35:00,47.2,37.6,30.08,NW,308,1.0,4.0,69,0.00,,,0.00,vanprod-2.5,2013-04-17 09:35:00,
2013-04-17 05:40:00,47.1,37.5,30.08,North,353,3.0,4.0,69,0.00,,,0.00,vanprod-2.5,2013-04-17 09:40:00,
2013-04-17 05:45:00,47.0,37.4,30.08,NW,311,2.0,4.0,69,0.00,,,0.00,vanprod-2.5,2013-04-17 09:45:00,
2013-04-17 05:50:00,46.9,37.3,30.09,NNW,342,2.0,4.0,69,0.00,,,0.00,vanprod-2.5,2013-04-17 09:50:00,
2013-04-17 05:55:00,46.8,37.2,30.09,North,350,1.0,3.0,69,0.00,,,0.00,vanprod-2.5,2013-04-17 09:55:00,
2013-04-17 06:00:00,46.6,37.0,30.09,NW,321,2.0,2.0,69,0.00,,,0.00,vanprod-2.5,2013-04-17 10:00:00,
2013-04-17 06:05:00,46.6,37.0,30.09,NNW,333,1.0,4.0,69,0.00,,,0.00,vanprod-2.5,2013-04-17 10:05:00,
2013-04-17 06:10:00,46.5,36.9,30.09,NNW,336,2.0,4.0,69,0.00,,,0.00,vanprod-2.5,2013-04-17 10:10:00,
2013-04-17 06:15:00,46.5,36.9,30.09,NNW,336,2.0,3.0,69,0.00,,,0.00,vanprod-2.5,2013-04-17 10:15:00,
2013-04-17 06:20:00,46.7,36.7,30.09,NNE,17,2.0,6.0,68,0.00,,,0.00,vanprod-2.5,2013-04-17 10:20:00,
2013-04-17 06:25:00,47.0,37.0,30.09,NNW,327,2.0,4.0,68,0.00,,,0.00,vanprod-2.5,2013-04-17 10:25:00,
2013-04-17 06:30:00,47.3,36.9,30.09,WNW,283,1.0,2.0,67,0.00,,,0.00,vanprod-2.5,2013-04-17 10:30:00,
2013-04-17 06:35:00,47.4,37.0,30.10,North,357,2.0,2.0,67,0.00,,,0.00,vanprod-2.5,2013-04-17 10:35:00,
2013-04-17 06:40:00,47.6,37.2,30.10,NNW,336,2.0,4.0,67,0.00,,,0.00,vanprod-2.5,2013-04-17 10:40:00,
2013-04-17 06:45:00,47.8,37.0,30.10,North,356,1.0,1.0,66,0.00,,,0.00,vanprod-2.5,2013-04-17 10:45:00,
2013-04-17 06:50:00,47.9,37.1,30.11,NNW,332,2.0,2.0,66,0.00,,,0.00,vanprod-2.5,2013-04-17 10:50:00,
2013-04-17 06:55:00,48.0,37.6,30.11,NNE,33,1.0,2.0,67,0.00,,,0.00,vanprod-2.5,2013-04-17 10:55:00,
2013-04-17 07:00:00,48.1,37.3,30.11,NW,324,1.0,2.0,66,0.00,,,0.00,vanprod-2.5,2013-04-17 11:00:00,
2013-04-17 07:05:00,48.1,37.3,30.11,WNW,301,2.0,2.0,66,0.00,,,0.00,vanprod-2.5,2013-04-17 11:05:00,
2013-04-17 07:10:00,48.1,36.9,30.12,NNW,333,3.0,5.0,65,0.00,,,0.00,vanprod-2.5,2013-04-17 11:10:00,
2013-04-17 07:15:00,48.4,37.2,30.12,North,359,1.0,2.0,65,0.00,,,0.00,vanprod-2.5,2013-04-17 11:15:00,
2013-04-17 07:20:00,48.5,37.3,30.12,WNW,289,1.0,1.0,65,0.00,,,0.00,vanprod-2.5,2013-04-17 11:20:00,
2013-04-17 07:25:00,48.7,37.9,30.13,NNE,13,0.0,1.0,66,0.00,,,0.00,vanprod-2.5,2013-04-17 11:25:00,
2013-04-17 07:30:00,49.3,38.0,30.13,NW,320,1.0,1.0,65,0.00,,,0.00,vanprod-2.5,2013-04-17 11:30:00,
2013-04-17 07:35:00,49.6,38.3,30.13,North,5,2.0,4.0,65,0.00,,,0.00,vanprod-2.5,2013-04-17 11:35:00,
2013-04-17 07:40:00,49.6,38.7,30.13,North,354,3.0,3.0,66,0.00,,,0.00,vanprod-2.5,2013-04-17 11:40:00,
2013-04-17 07:45:00,49.5,37.0,30.13,NNW,335,4.0,6.0,62,0.00,,,0.00,vanprod-2.5,2013-04-17 11:45:00,
2013-04-17 07:50:00,49.5,36.6,30.13,NW,321,4.0,9.0,61,0.00,,,0.00,vanprod-2.5,2013-04-17 11:50:00,
2013-04-17 07:55:00,49.6,35.9,30.13,North,356,5.0,10.0,59,0.00,,,0.00,vanprod-2.5,2013-04-17 11:55:00,
2013-04-17 08:00:00,49.9,35.7,30.13,North,351,4.0,8.0,58,0.00,,,0.00,vanprod-2.5,2013-04-17 12:00:00,
2013-04-17 08:05:00,50.3,36.1,30.14,North,351,4.0,7.0,58,0.00,,,0.00,vanprod-2.5,2013-04-17 12:05:00,
2013-04-17 08:10:00,50.6,35.5,30.14,NNE,18,4.0,5.0,56,0.00,,,0.00,vanprod-2.5,2013-04-17 12:10:00,
2013-04-17 08:15:00,50.8,35.2,30.14,North,351,3.0,7.0,55,0.00,,,0.00,vanprod-2.5,2013-04-17 12:15:00,
2013-04-17 08:20:00,50.8,35.7,30.14,NNW,343,2.0,3.0,56,0.00,,,0.00,vanprod-2.5,2013-04-17 12:20:00,
2013-04-17 08:26:00,50.9,34.9,30.14,NW,317,4.0,8.0,54,0.00,,,0.00,vanprod-2.5,2013-04-17 12:26:00,
2013-04-17 08:31:00,50.9,35.3,30.14,NW,320,2.0,5.0,55,0.00,,,0.00,vanprod-2.5,2013-04-17 12:31:00,
2013-04-17 08:36:00,51.2,36.1,30.14,North,4,3.0,5.0,56,0.00,,,0.00,vanprod-2.5,2013-04-17 12:36:00,
2013-04-17 08:41:00,51.3,36.2,30.14,NNW,331,2.0,4.0,56,0.00,,,0.00,vanprod-2.5,2013-04-17 12:41:00,
2013-04-17 08:46:00,51.9,36.3,30.14,NNW,333,2.0,2.0,55,0.00,,,0.00,vanprod-2.5,2013-04-17 12:46:00,
2013-04-17 08:51:00,52.7,35.6,30.14,North,5,2.0,5.0,52,0.00,,,0.00,vanprod-2.5,2013-04-17 12:51:00,
2013-04-17 08:56:00,52.3,35.2,30.15,WNW,288,2.0,7.0,52,0.00,,,0.00,vanprod-2.5,2013-04-17 12:56:00,
2013-04-17 09:01:00,52.3,33.7,30.15,North,3,5.0,5.0,49,0.00,,,0.00,vanprod-2.5,2013-04-17 13:01:00,
2013-04-17 09:06:00,52.6,33.0,30.15,NNW,344,3.0,3.0,47,0.00,,,0.00,vanprod-2.5,2013-04-17 13:06:00,
2013-04-17 09:11:00,52.8,34.2,30.15,NNW,347,4.0,4.0,49,0.00,,,0.00,vanprod-2.5,2013-04-17 13:11:00,
2013-04-17 09:16:00,52.8,32.6,30.15,North,1,6.0,6.0,46,0.00,,,0.00,vanprod-2.5,2013-04-17 13:16:00,
2013-04-17 09:21:00,53.0,32.8,30.15,NNW,338,3.0,3.0,46,0.00,,,0.00,vanprod-2.5,2013-04-17 13:21:00,
2013-04-17 09:26:00,53.4,33.7,30.15,North,11,5.0,5.0,47,0.00,,,0.00,vanprod-2.5,2013-04-17 13:26:00,
2013-04-17 09:31:00,53.6,33.9,30.15,North,2,5.0,9.0,47,0.00,,,0.00,vanprod-2.5,2013-04-17 13:31:00,
2013-04-17 09:36:00,53.1,32.3,30.15,NNW,339,6.0,10.0,45,0.00,,,0.00,vanprod-2.5,2013-04-17 13:36:00,
2013-04-17 09:41:00,53.7,32.9,30.15,NNW,334,5.0,5.0,45,0.00,,,0.00,vanprod-2.5,2013-04-17 13:41:00,
2013-04-17 09:46:00,53.6,31.7,30.16,NNE,18,6.0,10.0,43,0.00,,,0.00,vanprod-2.5,2013-04-17 13:46:00,
2013-04-17 09:51:00,53.3,33.1,30.16,North,352,4.0,4.0,46,0.00,,,0.00,vanprod-2.5,2013-04-17 13:51:00,
2013-04-17 09:56:00,54.0,33.2,30.16,NNE,19,4.0,6.0,45,0.00,,,0.00,vanprod-2.5,2013-04-17 13:56:00,
2013-04-17 10:01:00,54.1,32.7,30.16,NW,325,6.0,9.0,44,0.00,,,0.00,vanprod-2.5,2013-04-17 14:01:00,
2013-04-17 10:06:00,54.3,32.3,30.16,NNE,17,5.0,7.0,43,0.00,,,0.00,vanprod-2.5,2013-04-17 14:06:00,
2013-04-17 10:11:00,54.3,32.9,30.16,North,349,5.0,5.0,44,0.00,,,0.00,vanprod-2.5,2013-04-17 14:11:00,
2013-04-17 10:16:00,54.7,33.2,30.16,NW,324,4.0,6.0,44,0.00,,,0.00,vanprod-2.5,2013-04-17 14:16:00,
2013-04-17 10:21:00,55.3,33.8,30.16,WNW,297,2.0,2.0,44,0.00,,,0.00,vanprod-2.5,2013-04-17 14:21:00,
2013-04-17 10:26:00,55.7,33.0,30.16,NNE,33,5.0,10.0,42,0.00,,,0.00,vanprod-2.5,2013-04-17 14:26:00,
2013-04-17 10:31:00,55.5,32.8,30.16,NNE,26,3.0,9.0,42,0.00,,,0.00,vanprod-2.5,2013-04-17 14:31:00,
2013-04-17 10:36:00,55.4,33.3,30.16,NNW,333,5.0,8.0,43,0.00,,,0.00,vanprod-2.5,2013-04-17 14:36:00,
2013-04-17 10:41:00,55.4,31.5,30.16,NNW,334,5.0,5.0,40,0.00,,,0.00,vanprod-2.5,2013-04-17 14:41:00,
2013-04-17 10:46:00,56.1,32.7,30.16,NNE,12,5.0,8.0,41,0.00,,,0.00,vanprod-2.5,2013-04-17 14:46:00,
2013-04-17 10:51:00,55.6,34.1,30.16,North,353,6.0,12.0,44,0.00,,,0.00,vanprod-2.5,2013-04-17 14:51:00,
2013-04-17 10:56:00,55.5,32.2,30.16,NNW,329,5.0,11.0,41,0.00,,,0.00,vanprod-2.5,2013-04-17 14:56:00,
2013-04-17 11:01:00,55.7,33.6,30.16,North,351,4.0,5.0,43,0.00,,,0.00,vanprod-2.5,2013-04-17 15:01:00,
2013-04-17 11:06:00,56.7,33.3,30.16,NNE,12,6.0,8.0,41,0.00,,,0.00,vanprod-2.5,2013-04-17 15:06:00,
2013-04-17 11:11:00,56.4,33.6,30.16,NNW,335,6.0,10.0,42,0.00,,,0.00,vanprod-2.5,2013-04-17 15:11:00,
2013-04-17 11:17:00,56.8,32.1,30.16,North,355,7.0,13.0,39,0.00,,,0.00,vanprod-2.5,2013-04-17 15:17:00,
2013-04-17 11:22:00,56.9,32.8,30.16,NNW,347,5.0,8.0,40,0.00,,,0.00,vanprod-2.5,2013-04-17 15:22:00,
2013-04-17 11:27:00,57.5,33.4,30.16,North,356,5.0,11.0,40,0.00,,,0.00,vanprod-2.5,2013-04-17 15:27:00,
2013-04-17 11:32:00,57.3,34.4,30.16,NNW,334,3.0,3.0,42,0.00,,,0.00,vanprod-2.5,2013-04-17 15:32:00,
2013-04-17 11:37:00,57.5,32.8,30.16,NNE,12,5.0,6.0,39,0.00,,,0.00,vanprod-2.5,2013-04-17 15:37:00,
2013-04-17 11:42:00,57.8,32.4,30.16,NW,316,4.0,4.0,38,0.00,,,0.00,vanprod-2.5,2013-04-17 15:42:00,
2013-04-17 11:47:00,57.9,32.5,30.16,NNW,327,7.0,7.0,38,0.00,,,0.00,vanprod-2.5,2013-04-17 15:47:00,
2013-04-17 11:52:00,57.2,33.1,30.16,NW,322,6.0,6.0,40,0.00,,,0.00,vanprod-2.5,2013-04-17 15:52:00,
2013-04-17 11:57:00,57.2,32.5,30.16,NNW,343,5.0,6.0,39,0.00,,,0.00,vanprod-2.5,2013-04-17 15:57:00,
2013-04-17 12:02:00,57.9,33.1,30.16,NNW,342,6.0,7.0,39,0.00,,,0.00,vanprod-2.5,2013-04-17 16:02:00,
2013-04-17 12:07:00,58.1,32.6,30.16,North,359,5.0,6.0,38,0.00,,,0.00,vanprod-2.5,2013-04-17 16:07:00,
2013-04-17 12:12:00,58.3,32.2,30.16,NNW,344,4.0,4.0,37,0.00,,,0.00,vanprod-2.5,2013-04-17 16:12:00,
2013-04-17 12:17:00,58.8,33.3,30.16,NW,322,5.0,5.0,38,0.00,,,0.00,vanprod-2.5,2013-04-17 16:17:00,
2013-04-17 12:22:00,58.2,32.1,30.15,NNW,340,7.0,7.0,37,0.00,,,0.00,vanprod-2.5,2013-04-17 16:22:00,
2013-04-17 12:27:00,58.2,32.1,30.15,North,358,6.0,6.0,37,0.00,,,0.00,vanprod-2.5,2013-04-17 16:27:00,
2013-04-17 12:32:00,58.3,32.2,30.16,North,356,6.0,10.0,37,0.00,,,0.00,vanprod-2.5,2013-04-17 16:32:00,
2013-04-17 12:37:00,59.2,30.9,30.16,NNW,338,5.0,14.0,34,0.00,,,0.00,vanprod-2.5,2013-04-17 16:37:00,
2013-04-17 12:42:00,59.0,31.4,30.16,NNW,347,4.0,4.0,35,0.00,,,0.00,vanprod-2.5,2013-04-17 16:42:00,
2013-04-17 12:47:00,59.4,31.8,30.16,NW,322,7.0,7.0,35,0.00,,,0.00,vanprod-2.5,2013-04-17 16:47:00,
2013-04-17 12:52:00,58.7,31.1,30.16,NNW,329,9.0,11.0,35,0.00,,,0.00,vanprod-2.5,2013-04-17 16:52:00,
2013-04-17 12:57:00,58.7,31.1,30.15,NW,324,6.0,7.0,35,0.00,,,0.00,vanprod-2.5,2013-04-17 16:57:00,
2013-04-17 13:02:00,59.0,31.4,30.15,NW,312,5.0,5.0,35,0.00,,,0.00,vanprod-2.5,2013-04-17 17:02:00,
2013-04-17 13:07:00,59.1,31.5,30.16,NNW,332,5.0,5.0,35,0.00,,,0.00,vanprod-2.5,2013-04-17 17:07:00,
2013-04-17 13:12:00,59.3,34.4,30.16,North,356,4.0,6.0,39,0.00,,,0.00,vanprod-2.5,2013-04-17 17:12:00,
2013-04-17 13:17:00,60.2,31.8,30.16,North,355,5.0,5.0,34,0.00,,,0.00,vanprod-2.5,2013-04-17 17:17:00,
2013-04-17 13:22:00,59.8,31.4,30.15,NW,323,7.0,7.0,34,0.00,,,0.00,vanprod-2.5,2013-04-17 17:22:00,
2013-04-17 13:27:00,60.5,32.0,30.15,North,359,4.0,7.0,34,0.00,,,0.00,vanprod-2.5,2013-04-17 17:27:00,
2013-04-17 13:32:00,60.3,31.8,30.14,NW,317,5.0,6.0,34,0.00,,,0.00,vanprod-2.5,2013-04-17 17:32:00,
2013-04-17 13:37:00,60.6,31.4,30.14,North,3,6.0,8.0,33,0.00,,,0.00,vanprod-2.5,2013-04-17 17:37:00,
2013-04-17 13:42:00,60.7,32.9,30.14,NNE,16,5.0,12.0,35,0.00,,,0.00,vanprod-2.5,2013-04-17 17:42:00,
2013-04-17 13:47:00,61.1,31.8,30.14,North,8,5.0,7.0,33,0.00,,,0.00,vanprod-2.5,2013-04-17 17:47:00,
2013-04-17 13:52:00,61.5,32.9,30.15,North,9,8.0,12.0,34,0.00,,,0.00,vanprod-2.5,2013-04-17 17:52:00,
2013-04-17 13:57:00,60.2,33.2,30.15,NW,317,5.0,5.0,36,0.00,,,0.00,vanprod-2.5,2013-04-17 17:57:00,
2013-04-17 14:02:00,60.1,32.4,30.15,North,360,5.0,9.0,35,0.00,,,0.00,vanprod-2.5,2013-04-17 18:02:00,
2013-04-17 14:07:00,60.7,32.9,30.15,NNE,18,6.0,6.0,35,0.00,,,0.00,vanprod-2.5,2013-04-17 18:07:00,
2013-04-17 14:12:00,60.9,34.5,30.15,NW,318,4.0,8.0,37,0.00,,,0.00,vanprod-2.5,2013-04-17 18:12:00,
2013-04-17 14:17:00,60.3,32.6,30.15,NW,326,5.0,5.0,35,0.00,,,0.00,vanprod-2.5,2013-04-17 18:17:00,
2013-04-17 14:22:00,60.4,32.6,30.15,NW,322,6.0,12.0,35,0.00,,,0.00,vanprod-2.5,2013-04-17 18:22:00,
2013-04-17 14:27:00,60.9,33.1,30.15,North,358,6.0,8.0,35,0.00,,,0.00,vanprod-2.5,2013-04-17 18:27:00,
2013-04-17 14:32:00,61.4,32.1,30.15,NNW,347,3.0,4.0,33,0.00,,,0.00,vanprod-2.5,2013-04-17 18:32:00,
2013-04-17 14:37:00,61.6,30.7,30.15,NW,326,5.0,5.0,31,0.00,,,0.00,vanprod-2.5,2013-04-17 18:37:00,
2013-04-17 14:42:00,61.5,31.4,30.15,WNW,297,5.0,5.0,32,0.00,,,0.00,vanprod-2.5,2013-04-17 18:42:00,
2013-04-17 14:47:00,61.5,31.4,30.16,North,353,7.0,10.0,32,0.00,,,0.00,vanprod-2.5,2013-04-17 18:47:00,
2013-04-17 14:52:00,61.4,31.3,30.16,NW,322,7.0,8.0,32,0.00,,,0.00,vanprod-2.5,2013-04-17 18:52:00,
2013-04-17 14:57:00,60.9,31.6,30.16,NNW,327,6.0,12.0,33,0.00,,,0.00,vanprod-2.5,2013-04-17 18:57:00,
2013-04-17 15:02:00,60.9,30.9,30.16,NNE,13,5.0,7.0,32,0.00,,,0.00,vanprod-2.5,2013-04-17 19:02:00,
2013-04-17 15:07:00,61.8,31.7,30.16,North,9,5.0,5.0,32,0.00,,,0.00,vanprod-2.5,2013-04-17 19:07:00,
2013-04-17 15:12:00,61.8,32.4,30.16,NNW,334,4.0,5.0,33,0.00,,,0.00,vanprod-2.5,2013-04-17 19:12:00,
2013-04-17 15:17:00,61.1,31.0,30.16,NW,314,6.0,6.0,32,0.00,,,0.00,vanprod-2.5,2013-04-17 19:17:00,
2013-04-17 15:22:00,60.3,30.3,30.16,NNW,330,8.0,9.0,32,0.00,,,0.00,vanprod-2.5,2013-04-17 19:22:00,
2013-04-17 15:27:00,60.8,30.8,30.16,NW,315,6.0,7.0,32,0.00,,,0.00,vanprod-2.5,2013-04-17 19:27:00,
2013-04-17 15:32:00,60.3,30.3,30.16,NNW,329,7.0,7.0,32,0.00,,,0.00,vanprod-2.5,2013-04-17 19:32:00,
2013-04-17 15:37:00,60.9,30.1,30.17,NNE,13,5.0,5.0,31,0.00,,,0.00,vanprod-2.5,2013-04-17 19:37:00,
2013-04-17 15:42:00,61.5,29.8,30.17,NNW,333,7.0,15.0,30,0.00,,,0.00,vanprod-2.5,2013-04-17 19:42:00,
2013-04-17 15:47:00,61.2,30.3,30.17,NNW,336,5.0,5.0,31,0.00,,,0.00,vanprod-2.5,2013-04-17 19:47:00,
2013-04-17 15:52:00,60.7,29.9,30.18,NNW,327,10.0,12.0,31,0.00,,,0.00,vanprod-2.5,2013-04-17 19:52:00,
2013-04-17 15:57:00,60.4,29.7,30.18,North,351,6.0,8.0,31,0.00,,,0.00,vanprod-2.5,2013-04-17 19:57:00,
2013-04-17 16:02:00,60.6,29.8,30.18,NNW,347,6.0,6.0,31,0.00,,,0.00,vanprod-2.5,2013-04-17 20:02:00,
2013-04-17 16:07:00,60.7,29.9,30.18,NW,326,6.0,9.0,31,0.00,,,0.00,vanprod-2.5,2013-04-17 20:07:00,
2013-04-17 16:12:00,60.6,29.8,30.18,NNW,333,7.0,8.0,31,0.00,,,0.00,vanprod-2.5,2013-04-17 20:12:00,
2013-04-17 16:17:00,60.3,29.6,30.18,NW,320,7.0,7.0,31,0.00,,,0.00,vanprod-2.5,2013-04-17 20:17:00,
2013-04-17 16:22:00,60.3,31.1,30.19,NW,320,5.0,10.0,33,0.00,,,0.00,vanprod-2.5,2013-04-17 20:22:00,
2013-04-17 16:27:00,60.9,32.4,30.18,NNE,16,4.0,7.0,34,0.00,,,0.00,vanprod-2.5,2013-04-17 20:27:00,
2013-04-17 16:32:00,61.3,31.2,30.19,NNE,12,6.0,10.0,32,0.00,,,0.00,vanprod-2.5,2013-04-17 20:32:00,
2013-04-17 16:37:00,60.7,32.9,30.19,NW,323,5.0,9.0,35,0.00,,,0.00,vanprod-2.5,2013-04-17 20:37:00,
2013-04-17 16:42:00,60.6,32.1,30.20,NW,317,5.0,9.0,34,0.00,,,0.00,vanprod-2.5,2013-04-17 20:42:00,
2013-04-17 16:47:00,60.2,32.5,30.20,NNW,331,3.0,4.0,35,0.00,,,0.00,vanprod-2.5,2013-04-17 20:47:00,
2013-04-17 16:52:00,60.1,32.4,30.20,NNW,327,6.0,11.0,35,0.00,,,0.00,vanprod-2.5,2013-04-17 20:52:00,
2013-04-17 16:57:00,60.1,31.7,30.20,NW,324,4.0,6.0,34,0.00,,,0.00,vanprod-2.5,2013-04-17 20:57:00,
2013-04-17 17:02:00,60.4,31.2,30.20,NNW,337,4.0,6.0,33,0.00,,,0.00,vanprod-2.5,2013-04-17 21:02:00,
2013-04-17 17:07:00,60.7,31.5,30.20,NNW,336,6.0,8.0,33,0.00,,,0.00,vanprod-2.5,2013-04-17 21:07:00,
2013-04-17 17:12:00,60.2,31.0,30.21,WNW,303,5.0,5.0,33,0.00,,,0.00,vanprod-2.5,2013-04-17 21:12:00,
2013-04-17 17:17:00,60.1,32.4,30.21,WNW,295,4.0,4.0,35,0.00,,,0.00,vanprod-2.5,2013-04-17 21:17:00,
2013-04-17 17:22:00,60.0,32.3,30.21,WNW,297,7.0,9.0,35,0.00,,,0.00,vanprod-2.5,2013-04-17 21:22:00,
2013-04-17 17:27:00,60.0,32.3,30.21,WNW,292,6.0,16.0,35,0.00,,,0.00,vanprod-2.5,2013-04-17 21:27:00,
2013-04-17 17:32:00,60.5,32.7,30.21,NNW,330,4.0,12.0,35,0.00,,,0.00,vanprod-2.5,2013-04-17 21:32:00,
2013-04-17 17:37:00,60.4,31.9,30.21,NNW,343,5.0,13.0,34,0.00,,,0.00,vanprod-2.5,2013-04-17 21:37:00,
2013-04-17 17:42:00,60.5,32.7,30.21,NNW,333,2.0,3.0,35,0.00,,,0.00,vanprod-2.5,2013-04-17 21:42:00,
2013-04-17 17:47:00,60.4,31.9,30.22,NW,321,4.0,6.0,34,0.00,,,0.00,vanprod-2.5,2013-04-17 21:47:00,
2013-04-17 17:52:00,60.3,31.8,30.22,NNE,13,2.0,6.0,34,0.00,,,0.00,vanprod-2.5,2013-04-17 21:52:00,
2013-04-17 17:57:00,59.6,31.2,30.22,NNW,344,5.0,6.0,34,0.00,,,0.00,vanprod-2.5,2013-04-17 21:57:00,
2013-04-17 18:02:00,59.0,29.2,30.22,North,11,5.0,7.0,32,0.00,,,0.00,vanprod-2.5,2013-04-17 22:02:00,
2013-04-17 18:07:00,58.7,31.1,30.22,NNW,345,4.0,6.0,35,0.00,,,0.00,vanprod-2.5,2013-04-17 22:07:00,
2013-04-17 18:12:00,58.7,30.4,30.22,NNE,29,3.0,7.0,34,0.00,,,0.00,vanprod-2.5,2013-04-17 22:12:00,
2013-04-17 18:17:00,58.6,29.6,30.23,North,8,4.0,4.0,33,0.00,,,0.00,vanprod-2.5,2013-04-17 22:17:00,
2013-04-17 18:22:00,58.2,30.7,30.23,North,357,2.0,2.0,35,0.00,,,0.00,vanprod-2.5,2013-04-17 22:22:00,
2013-04-17 18:27:00,58.2,30.0,30.23,North,357,4.0,4.0,34,0.00,,,0.00,vanprod-2.5,2013-04-17 22:27:00,
2013-04-17 18:32:00,57.6,28.7,30.23,NNE,21,5.0,8.0,33,0.00,,,0.00,vanprod-2.5,2013-04-17 22:32:00,
2013-04-17 18:37:00,57.1,29.0,30.24,North,355,5.0,10.0,34,0.00,,,0.00,vanprod-2.5,2013-04-17 22:37:00,
2013-04-17 18:42:00,56.6,28.6,30.24,North,5,4.0,9.0,34,0.00,,,0.00,vanprod-2.5,2013-04-17 22:42:00,
2013-04-17 18:47:00,56.3,28.3,30.24,NNW,331,4.0,4.0,34,0.00,,,0.00,vanprod-2.5,2013-04-17 22:47:00,
2013-04-17 18:52:00,55.9,28.7,30.25,North,4,5.0,7.0,35,0.00,,,0.00,vanprod-2.5,2013-04-17 22:52:00,
2013-04-17 18:57:00,55.8,27.9,30.25,NNW,342,4.0,4.0,34,0.00,,,0.00,vanprod-2.5,2013-04-17 22:57:00,
2013-04-17 19:02:00,55.6,29.1,30.25,North,10,4.0,7.0,36,0.00,,,0.00,vanprod-2.5,2013-04-17 23:02:00,
2013-04-17 19:07:00,55.2,28.0,30.25,North,350,5.0,11.0,35,0.00,,,0.00,vanprod-2.5,2013-04-17 23:07:00,
2013-04-17 19:12:00,54.8,28.4,30.26,NNE,15,3.0,3.0,36,0.00,,,0.00,vanprod-2.5,2013-04-17 23:12:00,
2013-04-17 19:17:00,54.5,28.8,30.26,NNE,14,4.0,7.0,37,0.00,,,0.00,vanprod-2.5,2013-04-17 23:17:00,
2013-04-17 19:22:00,54.2,29.2,30.26,North,11,2.0,4.0,38,0.00,,,0.00,vanprod-2.5,2013-04-17 23:22:00,
2013-04-17 19:27:00,53.9,28.9,30.26,NNE,12,3.0,3.0,38,0.00,,,0.00,vanprod-2.5,2013-04-17 23:27:00,
2013-04-17 19:32:00,53.6,29.3,30.27,North,353,3.0,3.0,39,0.00,,,0.00,vanprod-2.5,2013-04-17 23:32:00,
2013-04-17 19:37:00,53.4,29.7,30.27,NNW,343,2.0,2.0,40,0.00,,,0.00,vanprod-2.5,2013-04-17 23:37:00,
2013-04-17 19:42:00,53.2,28.9,30.27,North,10,3.0,4.0,39,0.00,,,0.00,vanprod-2.5,2013-04-17 23:42:00,
2013-04-17 19:47:00,53.1,28.8,30.28,NNE,19,3.0,3.0,39,0.00,,,0.00,vanprod-2.5,2013-04-17 23:47:00,
2013-04-17 19:52:00,52.9,29.9,30.28,North,359,2.0,4.0,41,0.00,,,0.00,vanprod-2.5,2013-04-17 23:52:00,
2013-04-17 19:57:00,52.4,30.0,30.28,NNE,18,2.0,2.0,42,0.00,,,0.00,vanprod-2.5,2013-04-17 23:57:00,
2013-04-17 20:02:00,52.0,30.2,30.28,NNW,339,3.0,4.0,43,0.00,,,0.00,vanprod-2.5,2013-04-18 00:02:00,
2013-04-17 20:07:00,51.8,30.0,30.29,North,3,2.0,4.0,43,0.00,,,0.00,vanprod-2.5,2013-04-18 00:07:00,
2013-04-17 20:12:00,51.8,28.9,30.29,NNW,342,2.0,4.0,41,0.00,,,0.00,vanprod-2.5,2013-04-18 00:12:00,
2013-04-17 20:17:00,51.8,29.5,30.30,NNE,18,3.0,4.0,42,0.00,,,0.00,vanprod-2.5,2013-04-18 00:17:00,
2013-04-17 20:22:00,51.7,28.8,30.30,NNE,13,3.0,4.0,41,0.00,,,0.00,vanprod-2.5,2013-04-18 00:22:00,
2013-04-17 20:27:00,51.7,29.4,30.31,NNE,30,2.0,2.0,42,0.00,,,0.00,vanprod-2.5,2013-04-18 00:27:00,
2013-04-17 20:32:00,51.4,29.1,30.31,NNE,28,3.0,5.0,42,0.00,,,0.00,vanprod-2.5,2013-04-18 00:32:00,
2013-04-17 20:37:00,51.2,28.9,30.31,NNE,20,3.0,9.0,42,0.00,,,0.00,vanprod-2.5,2013-04-18 00:37:00,
2013-04-17 20:42:00,51.1,29.4,30.32,NNW,347,3.0,7.0,43,0.00,,,0.00,vanprod-2.5,2013-04-18 00:42:00,
2013-04-17 20:47:00,51.1,28.8,30.32,NE,37,2.0,4.0,42,0.00,,,0.00,vanprod-2.5,2013-04-18 00:47:00,
2013-04-17 20:52:00,50.9,29.8,30.32,North,4,1.0,4.0,44,0.00,,,0.00,vanprod-2.5,2013-04-18 00:52:00,
2013-04-17 20:57:00,50.6,30.1,30.32,NNE,18,2.0,2.0,45,0.00,,,0.00,vanprod-2.5,2013-04-18 00:57:00,
2013-04-17 21:02:00,49.9,30.5,30.32,North,353,3.0,7.0,47,0.00,,,0.00,vanprod-2.5,2013-04-18 01:02:00,
2013-04-17 21:07:00,49.7,30.8,30.32,North,355,3.0,4.0,48,0.00,,,0.00,vanprod-2.5,2013-04-18 01:07:00,
2013-04-17 21:12:00,50.0,29.5,30.33,North,4,2.0,3.0,45,0.00,,,0.00,vanprod-2.5,2013-04-18 01:12:00,
2013-04-17 21:17:00,50.0,29.0,30.33,NNE,15,1.0,1.0,44,0.00,,,0.00,vanprod-2.5,2013-04-18 01:17:00,
2013-04-17 21:22:00,50.0,29.5,30.33,North,4,1.0,1.0,45,0.00,,,0.00,vanprod-2.5,2013-04-18 01:22:00,
2013-04-17 21:27:00,49.7,29.8,30.33,North,8,1.0,1.0,46,0.00,,,0.00,vanprod-2.5,2013-04-18 01:27:00,
2013-04-17 21:32:00,49.6,30.7,30.33,NE,49,1.0,5.0,48,0.00,,,0.00,vanprod-2.5,2013-04-18 01:32:00,
2013-04-17 21:37:00,49.4,31.1,30.33,NE,47,1.0,3.0,49,0.00,,,0.00,vanprod-2.5,2013-04-18 01:37:00,
2013-04-17 21:42:00,48.8,31.5,30.33,NNE,20,1.0,1.0,51,0.00,,,0.00,vanprod-2.5,2013-04-18 01:42:00,
2013-04-17 21:47:00,48.2,31.4,30.33,NNE,27,1.0,1.0,52,0.00,,,0.00,vanprod-2.5,2013-04-18 01:47:00,
2013-04-17 21:52:00,47.9,31.6,30.33,NE,55,1.0,1.0,53,0.00,,,0.00,vanprod-2.5,2013-04-18 01:52:00,
2013-04-17 21:57:00,47.7,31.9,30.33,NE,41,2.0,2.0,54,0.00,,,0.00,vanprod-2.5,2013-04-18 01:57:00,
2013-04-17 22:02:00,47.5,32.2,30.33,NNE,29,1.0,0.0,55,0.00,,,0.00,vanprod-2.5,2013-04-18 02:02:00,
2013-04-17 22:07:00,47.1,31.8,30.33,NNW,340,1.0,1.0,55,0.00,,,0.00,vanprod-2.5,2013-04-18 02:07:00,
2013-04-17 22:12:00,47.0,32.1,30.33,North,355,1.0,1.0,56,0.00,,,0.00,vanprod-2.5,2013-04-18 02:12:00,
2013-04-17 22:17:00,46.9,32.0,30.33,NNE,20,1.0,1.0,56,0.00,,,0.00,vanprod-2.5,2013-04-18 02:17:00,
2013-04-17 22:22:00,47.0,31.7,30.33,NNE,21,2.0,3.0,55,0.00,,,0.00,vanprod-2.5,2013-04-18 02:22:00,
2013-04-17 22:27:00,46.9,32.0,30.33,NNE,29,2.0,2.0,56,0.00,,,0.00,vanprod-2.5,2013-04-18 02:27:00,
2013-04-17 22:32:00,46.3,31.0,30.33,NE,41,3.0,6.0,55,0.00,,,0.00,vanprod-2.5,2013-04-18 02:32:00,
2013-04-17 22:37:00,46.8,30.1,30.33,NE,47,3.0,4.0,52,0.00,,,0.00,vanprod-2.5,2013-04-18 02:37:00,
2013-04-17 22:42:00,46.9,30.2,30.32,NNE,29,3.0,4.0,52,0.00,,,0.00,vanprod-2.5,2013-04-18 02:42:00,
2013-04-17 22:47:00,46.8,29.6,30.32,NE,35,4.0,5.0,51,0.00,,,0.00,vanprod-2.5,2013-04-18 02:47:00,
2013-04-17 22:52:00,47.1,30.9,30.33,ENE,62,1.0,3.0,53,0.00,,,0.00,vanprod-2.5,2013-04-18 02:52:00,
2013-04-17 22:57:00,47.1,30.9,30.33,North,10,2.0,2.0,53,0.00,,,0.00,vanprod-2.5,2013-04-18 02:57:00,
2013-04-17 23:02:00,46.3,31.5,30.32,NE,34,3.0,7.0,56,0.00,,,0.00,vanprod-2.5,2013-04-18 03:02:00,
2013-04-17 23:07:00,46.6,30.9,30.32,ENE,58,3.0,5.0,54,0.00,,,0.00,vanprod-2.5,2013-04-18 03:07:00,
2013-04-17 23:12:00,46.6,30.4,30.32,North,353,3.0,3.0,53,0.00,,,0.00,vanprod-2.5,2013-04-18 03:12:00,
2013-04-17 23:17:00,46.3,30.1,30.33,NNE,33,3.0,4.0,53,0.00,,,0.00,vanprod-2.5,2013-04-18 03:17:00,
2013-04-17 23:22:00,46.6,29.9,30.34,NE,47,3.0,4.0,52,0.00,,,0.00,vanprod-2.5,2013-04-18 03:22:00,
2013-04-17 23:27:00,46.7,30.0,30.33,NNW,344,1.0,2.0,52,0.00,,,0.00,vanprod-2.5,2013-04-18 03:27:00,
2013-04-17 23:32:00,46.2,29.6,30.33,NE,45,2.0,2.0,52,0.00,,,0.00,vanprod-2.5,2013-04-18 03:32:00,
2013-04-17 23:37:00,46.4,29.3,30.34,NE,54,2.0,2.0,51,0.00,,,0.00,vanprod-2.5,2013-04-18 03:37:00,
2013-04-17 23:42:00,46.3,29.2,30.34,North,356,1.0,1.0,51,0.00,,,0.00,vanprod-2.5,2013-04-18 03:42:00,
2013-04-17 23:47:00,45.5,30.3,30.34,NE,52,2.0,3.0,55,0.00,,,0.00,vanprod-2.5,2013-04-18 03:47:00,
2013-04-17 23:52:00,45.4,30.2,30.34,East,94,0.0,1.0,55,0.00,,,0.00,vanprod-2.5,2013-04-18 03:52:00,
2013-04-17 23:57:00,44.8,30.9,30.33,NE,37,1.0,1.0,58,0.00,,,0.00,vanprod-2.5,2013-04-18 03:57:00,